Location: Altamira
(10.5079°N, 66.8544°W)
Time: 09:20:02
(UTC+00:00)

Aurora 2 Rocket - Visible Passes

Search period start: 26 June 2022 00:00
Search period end: 06 July 2022 00:00
Orbit: 389 x 1721 km, 25.0° (Epoch: 25 June)

Date Brightness Start Highest point End Pass type
(mag) Time Alt. Az. Time Alt. Az. Time Alt. Az.
26 Jun 4.8 01:16:21 10° SW 01:21:31 34° SSW 01:21:31 34° SSW visible
26 Jun 4.6 08:57:00 10° NNW 08:58:38 13° NNE 09:00:20 10° NE visible
27 Jun 4.4 00:12:09 10° SW 00:21:02 41° SSE 00:23:25 34° ESE visible
27 Jun 5.6 02:06:59 10° WSW 02:09:44 22° WSW 02:09:44 22° WSW visible
27 Jun 3.4 09:45:53 10° NW 09:48:47 35° NNE 09:52:09 10° E visible
27 Jun 5.1 23:08:08 10° SW 23:17:03 33° SSE 23:24:20 10° E visible
28 Jun 3.7 01:02:20 10° WSW 01:11:41 77° SSE 01:11:41 77° SSE visible
28 Jun 4.2 08:43:50 10° NNW 08:46:12 19° NNE 08:48:35 10° ENE visible
28 Jun 4.3 23:57:53 10° SW 00:07:54 59° SSE 00:13:38 20° E visible
29 Jun 4.7 01:53:27 10° WSW 01:59:57 45° WNW 01:59:57 45° WNW visible
29 Jun 2.0 09:33:14 10° WNW 09:36:16 66° NNE 09:39:36 10° ESE visible
30 Jun 4.1 00:48:32 10° WSW 00:58:29 81° NNW 01:01:51 39° ENE visible
30 Jun 5.9 02:45:23 10° W 02:48:09 19° WNW 02:48:09 19° WNW visible
30 Jun 3.1 08:33:09 30° N 08:33:45 33° NNE 08:36:34 10° E visible
30 Jun 4.3 23:43:52 10° WSW 23:54:33 78° SSE 00:02:52 10° ENE visible
01 Jul 4.6 01:40:03 10° W 01:48:59 48° NNW 01:49:58 45° N visible
01 Jul 1.7 09:21:05 13° WNW 09:23:45 56° SSW 09:26:51 10° SE visible
02 Jul 4.6 00:34:55 10° WSW 00:45:09 65° NNW 00:51:38 17° NE visible
02 Jul 5.5 02:32:15 10° WNW 02:37:55 28° NW 02:37:55 28° NW visible
02 Jul 3.6 08:22:48 27° E 08:22:48 27° E 08:24:20 10° ESE visible
02 Jul 4.6 23:30:06 10° WSW 23:41:03 83° NNW 23:50:01 10° ENE visible
03 Jul 5.1 01:26:45 10° W 01:35:50 41° NNW 01:39:25 27° NNE visible
03 Jul 6.3 03:24:36 10° WNW 03:25:41 13° NW 03:25:41 13° NW visible
03 Jul 2.7 09:10:51 26° SW 09:11:10 26° SSW 09:13:50 10° SSE visible
04 Jul 5.0 00:21:28 10° W 00:31:47 53° NNW 00:40:03 10° NE visible
04 Jul 5.4 02:19:03 10° WNW 02:26:44 29° NNW 02:27:01 29° N visible
04 Jul 5.0 23:16:35 10° WSW 23:27:30 68° NNW 23:36:57 10° ENE visible
05 Jul 5.4 01:13:31 10° WNW 01:22:43 37° NNW 01:28:10 18° NE visible
05 Jul 6.0 03:11:11 10° NW 03:14:24 19° NW 03:14:24 19° NW visible
